GFSMW_2pvu_pres_168.txt.gz
Presure
215 291 147 98 221 214 213 180 192 195 173 182 177 147 178 176 136 88 78 160 172 173 81 114 181 89 103 182 187 180 179 186 189 173 194 206 207 215 205 195 196 195 193
213 212 232 234 89 227 120 216 188 168 196 120 177 137 164 173 107 161 122 80 128 175 159 94 96 162 173 173 165 177 188 186 190 204 197 220 192 200 193 192 185 183 190
83 221 210 245 158 241 224 93 214 176 182 178 172 176 119 134 89 87 91 97 158 143 97 94 123 180 173 175 186 178 180 187 186 191 221 210 199 202 185 186 187 183 188
265 220 214 263 215 228 239 219 80 73 196 117 198 179 170 173 99 174 107 89 90 142 160 176 175 170 177 176 183 179 190 191 177 213 227 199 196 183 187 184 188 186 183
86 229 209 206 252 180 218 230 217 213 202 86 89 76 201 184 89 174 176 171 175 175 177 179 181 178 178 179 181 183 173 183 187 189 178 197 191 187 188 188 189 180 187
385 246 212 203 222 190 160 136 210 214 194 193 192 183 118 200 130 175 177 170 171 170 172 173 181 172 174 171 187 186 191 198 220 200 194 194 186 186 181 185 182 181 185
413 257 224 169 188 223 218 222 220 214 122 202 199 169 172 183 153 183 177 173 176 175 174 177 175 175 175 194 189 192 192 209 202 192 197 184 184 180 184 179 179 175 180
396 342 233 211 198 264 240 188 214 214 97 211 206 195 94 235 199 186 189 185 180 179 179 178 179 183 193 190 192 206 206 199 199 194 184 191 177 183 184 180 186 181 181
381 342 254 240 202 237 241 189 174 208 223 217 199 203 199 196 198 193 191 190 190 193 189 187 186 185 191 195 195 195 200 198 196 191 180 188 179 180 182 179 184 188 148
341 326 243 231 208 201 230 223 220 197 204 215 212 203 198 202 197 195 195 197 201 198 197 194 194 194 193 192 196 201 196 195 190 175 188 178 184 184 190 190 189 154 179
323 316 274 231 212 200 217 219 182 183 184 213 175 206 203 201 201 201 203 202 203 199 196 194 193 190 198 203 195 194 190 183 178 190 183 176 188 190 185 162 186 185 193
317 317 259 224 215 210 222 219 185 187 184 210 203 204 204 202 202 204 205 201 196 194 192 196 192 198 193 185 189 181 183 181 185 180 177 186 189 191 155 183 188 192 184
319 341 281 202 202 203 197 218 194 228 183 187 205 205 207 209 206 201 201 197 198 201 200 191 187 183 181 185 174 184 183 186 181 174 184 191 193 165 185 182 192 186 200
333 335 257 213 204 210 205 212 216 193 187 184 186 206 182 189 204 188 199 201 203 200 203 199 180 176 174 179 187 184 185 176 171 186 192 191 178 188 184 193 189 201 207
328 328 252 210 203 210 196 215 194 196 194 172 177 182 183 179 181 193 177 208 183 182 183 180 172 174 187 186 185 177 171 172 194 195 193 180 188 187 199 192 204 207 192
314 314 234 208 206 199 199 201 203 210 200 190 190 173 173 182 183 186 182 180 183 175 172 172 182 184 187 172 173 169 192 196 195 183 182 188 198 182 197 208 210 186 218
308 319 222 212 212 221 218 190 197 217 197 198 183 185 176 173 179 185 185 178 173 172 177 186 181 179 172 171 180 194 188 182 182 184 184 197 204 200 206 209 200 222 248
296 242 220 212 214 203 215 186 188 192 189 186 191 188 188 185 180 177 174 173 180 187 181 176 174 173 178 194 180 183 183 185 183 189 202 196 205 205 184 200 238 246 215
319 227 202 212 231 216 215 192 195 192 191 190 187 191 194 191 190 191 189 178 177 180 174 173 167 190 187 190 184 189 182 186 205 197 203 202 214 201 220 249 242 224 232
290 227 222 205 204 214 211 201 192 188 189 189 191 192 191 189 188 179 176 179 176 178 185 182 189 189 180 188 183 185 194 191 199 202 196 211 205 237 246 233 226 233 236
283 238 219 193 218 210 200 202 203 204 195 189 190 188 187 189 190 191 190 189 186 187 191 185 174 176 186 183 191 174 195 200 203 210 204 229 242 237 226 227 233 231 287
305 246 222 215 191 217 152 197 219 202 201 199 193 191 188 185 184 183 184 180 185 188 172 175 187 181 196 182 195 200 204 189 213 213 246 239 219 224 224 227 286 338 316
310 251 221 206 165 212 213 203 197 211 205 184 182 183 197 179 174 185 193 190 174 186 191 196 202 181 194 196 203 187 213 211 246 240 223 222 225 230 237 230 317 442 523
272 280 146 197 206 219 211 209 210 206 201 200 196 197 194 193 196 191 182 190 198 204 200 185 191 194 202 202 202 218 246 239 223 214 223 222 227 248 318 325 448 521 527
244 240 250 229 222 213 212 212 209 207 208 206 205 204 203 201 201 200 198 191 195 188 204 196 199 208 214 227 244 235 217 211 223 223 313 244 306 307 321 444 509 515 448
277 265 224 222 220 222 218 208 212 211 207 207 206 204 207 208 209 211 209 208 209 186 214 216 231 247 238 223 210 212 200 215 276 272 291 306 320 414 437 513 518 447 406

GFSMW_2pvu_pres_171.txt.gz
Presure
334 236 212 212 222 102 241 220 212 214 184 211 183 177 169 171 171 154 170 167 127 109 171 77 171 87 102 176 123 105 179 131 177 177 175 179 182 189 180 192 225 200 195
400 89 204 218 216 110 253 97 212 215 216 183 219 192 177 169 171 170 168 117 172 96 179 175 122 85 118 143 119 123 171 174 170 179 178 182 179 190 187 215 180 198 193
391 373 200 218 214 140 255 242 215 211 201 216 214 215 199 137 122 128 176 178 113 148 83 84 134 168 171 174 178 175 172 180 180 171 169 186 188 190 203 208 192 199 189
386 372 284 224 219 133 200 252 193 215 213 214 103 205 209 103 198 165 105 173 178 152 160 173 153 172 170 174 175 178 171 172 172 170 180 192 189 203 204 199 195 194 186
383 361 350 256 215 213 208 89 185 227 93 211 208 196 167 100 146 118 83 93 84 172 91 170 138 174 175 178 169 170 171 175 171 173 187 189 194 203 195 197 194 183 188
395 357 354 279 213 213 218 203 199 230 223 220 185 211 129 203 173 88 92 183 172 161 173 137 179 185 172 172 168 174 173 175 175 178 187 193 195 199 193 196 190 184 192
398 365 357 311 225 211 162 132 187 163 221 226 88 133 131 138 197 174 173 177 171 196 184 199 188 181 175 174 178 179 178 185 184 187 194 193 188 195 197 190 179 186 185
365 408 358 355 245 213 200 198 206 247 226 226 217 212 177 200 185 146 186 180 174 169 174 173 192 181 189 183 186 183 192 194 194 194 187 197 193 196 178 187 176 168 177
389 406 344 391 226 223 212 202 204 248 230 217 216 222 106 204 200 201 191 190 186 186 186 179 206 195 188 193 197 199 196 196 192 188 193 186 190 175 184 182 185 182 173
393 404 366 391 261 224 243 207 204 248 230 223 199 212 223 214 204 200 199 197 185 202 207 182 192 195 195 196 200 202 198 194 193 186 187 186 182 190 182 187 180 178 196
391 411 375 352 264 223 219 206 201 201 237 227 203 203 177 213 209 203 205 205 212 217 209 199 199 199 200 203 200 198 189 195 186 176 179 182 188 186 182 184 180 201 201
397 363 371 340 257 239 241 222 206 194 234 226 213 202 214 187 204 207 211 217 210 204 200 200 201 203 202 202 199 193 199 185 195 171 183 189 182 177 183 181 201 193 188
209 355 324 288 278 226 224 202 197 193 227 220 222 213 203 188 197 209 211 207 211 203 202 203 199 200 197 197 190 187 184 170 175 186 184 183 174 178 193 201 191 189 189
330 350 312 291 270 233 214 203 204 198 218 225 219 212 211 176 187 200 207 210 207 182 201 184 197 183 174 193 198 178 169 176 191 183 180 174 178 191 196 192 188 194 196
308 315 314 304 261 180 209 229 210 193 222 221 208 213 200 208 185 194 189 182 164 196 177 178 172 176 182 185 174 171 181 189 178 176 174 181 190 197 190 188 192 198 196
292 296 304 291 270 239 231 208 207 191 194 173 176 194 196 191 201 175 176 172 200 197 174 177 181 182 174 170 175 187 188 178 174 171 186 190 188 188 191 187 200 204 206
288 294 293 311 204 229 220 198 193 197 201 213 190 205 221 218 212 189 180 173 171 173 175 181 185 170 172 183 186 179 176 177 178 186 192 180 185 193 173 202 206 212 193
301 284 303 303 275 216 199 206 199 201 193 203 225 201 214 191 192 204 183 181 183 187 190 170 173 186 179 176 180 182 187 173 191 183 177 184 192 201 205 202 206 200 222
273 289 324 294 225 214 198 201 198 171 188 180 192 225 212 200 196 195 195 187 186 190 177 175 187 189 189 190 185 164 184 188 186 181 193 183 205 204 204 202 213 230 248
295 302 301 297 222 209 221 217 215 208 215 183 178 188 185 223 208 192 194 192 188 186 186 187 184 184 181 178 175 182 191 179 187 191 181 202 197 210 201 226 244 253 241
290 312 291 286 228 226 226 216 178 207 210 215 203 195 194 187 183 180 180 182 182 186 191 188 188 185 177 181 192 184 183 188 195 201 193 208 212 222 241 252 240 238 248
292 292 299 245 231 227 223 212 209 209 209 224 202 205 201 200 200 197 193 191 190 184 183 177 188 191 189 180 189 185 202 200 194 213 215 226 246 249 237 232 249 235 275
275 273 245 220 232 226 224 216 200 212 193 189 197 196 193 191 189 182 178 178 183 189 190 190 187 164 193 200 201 196 207 216 220 226 248 246 232 224 240 227 280 302 360
272 311 280 284 227 207 218 217 214 212 217 204 199 178 182 201 202 202 201 196 190 190 195 199 201 199 193 205 211 215 223 227 247 238 225 221 233 226 288 285 302 363 479
286 308 293 222 230 211 210 210 191 190 184 203 212 212 201 192 188 196 202 204 199 195 194 199 202 211 213 199 224 239 241 232 216 202 231 246 255 281 284 299 366 476 524
264 267 294 274 216 221 225 217 214 208 208 211 211 212 207 202 201 200 199 201 202 206 212 214 216 221 235 247 230 213 208 214 221 256 218 238 285 290 302 366 410 520 501

GFSMW_2pvu_pres_174.txt.gz
Presure
445 461 465 239 236 202 107 87 219 90 200 217 207 198 201 201 207 168 99 177 171 178 179 172 176 179 173 168 98 174 90 125 178 177 177 177 177 171 172 178 171 191 197
338 454 439 464 234 200 129 93 211 201 194 185 227 213 228 173 177 185 177 169 171 167 170 173 102 83 140 105 107 174 177 141 117 117 173 172 168 170 168 173 172 188 194
355 252 371 253 154 221 184 196 201 227 197 227 103 188 203 151 172 190 190 172 168 132 82 143 140 168 86 105 174 172 141 139 167 172 173 170 168 172 172 172 177 190 196
354 400 352 432 415 216 207 197 194 207 185 247 229 158 117 220 202 194 196 94 175 174 95 167 168 169 85 171 176 177 175 173 172 168 170 172 169 177 166 184 190 194 196
100 419 411 415 398 209 215 203 195 197 102 177 185 213 212 200 207 217 177 209 86 174 176 93 136 165 163 167 171 171 170 169 170 176 170 167 174 178 179 193 195 192 198
326 398 405 404 391 250 226 208 203 208 194 213 202 185 226 84 101 207 213 151 208 182 122 183 126 183 174 96 171 170 167 174 193 190 178 176 185 182 191 195 195 191 192
225 385 403 395 385 360 291 202 157 201 196 233 221 212 217 208 201 131 202 200 197 102 201 176 164 178 189 191 170 176 192 165 186 196 187 184 188 196 191 194 190 188 188
324 364 391 379 372 355 294 205 202 144 90 84 227 238 231 210 201 166 202 199 194 94 179 174 174 173 173 174 164 169 163 182 161 211 183 190 193 195 193 187 189 186 178
330 356 390 367 366 353 288 194 174 150 203 212 371 227 226 222 206 203 199 195 192 196 198 196 192 177 182 176 181 183 172 186 193 191 193 193 196 196 192 195 189 174 189
330 356 393 363 359 215 79 215 205 201 223 196 182 248 226 223 222 209 197 183 196 194 193 191 192 187 187 183 190 190 199 193 189 198 194 197 200 193 192 186 173 191 182
355 380 396 365 328 331 160 231 211 202 204 205 201 202 237 229 213 209 206 206 195 199 196 198 193 193 184 199 186 182 214 203 198 194 196 198 194 193 194 171 191 183 180
407 394 391 363 355 311 269 243 213 153 204 202 174 182 229 231 226 194 212 208 182 205 205 196 156 203 195 195 205 217 215 203 190 195 193 194 183 183 169 191 182 177 181
418 395 378 356 342 299 259 238 227 210 212 199 188 183 166 235 221 203 167 216 209 216 214 215 201 212 204 209 218 210 210 187 187 197 183 181 184 174 192 179 180 184 181
428 400 363 344 305 286 205 227 219 189 205 200 196 188 192 235 214 208 194 169 181 166 188 173 206 207 184 213 212 192 185 177 184 181 184 171 181 183 178 183 189 184 190
401 351 343 315 289 246 199 234 217 180 219 203 201 196 178 197 211 206 210 201 201 166 189 189 198 205 214 204 195 204 178 180 181 184 166 189 174 189 186 183 187 190 191
380 298 294 281 283 256 237 153 164 241 181 254 201 198 185 177 214 214 211 210 161 170 137 168 195 178 188 208 168 172 181 180 177 172 177 191 183 184 178 186 197 196 201
288 291 282 259 264 245 154 217 236 255 200 230 200 191 189 186 198 184 201 211 210 211 202 206 171 183 170 176 184 183 193 190 189 184 182 184 183 182 193 187 201 202 191
280 266 265 270 255 201 181 232 230 232 250 207 205 178 176 196 161 185 215 211 184 211 201 196 198 182 183 188 189 189 186 179 183 186 180 192 186 195 187 199 197 201 206
279 265 260 257 259 257 248 187 220 212 199 197 190 183 194 197 177 182 221 208 223 207 191 190 204 186 198 192 181 182 188 186 184 200 189 189 172 198 191 200 209 209 222
279 273 265 258 246 260 262 260 231 201 210 213 209 167 171 188 206 225 219 199 227 206 193 192 193 184 180 186 187 180 186 202 182 181 187 194 200 167 209 208 218 233 239
294 275 268 268 264 268 253 212 197 213 220 210 200 205 198 192 236 177 174 226 198 200 193 178 181 185 195 203 193 191 194 184 185 190 201 192 205 204 214 229 242 250 239
271 272 275 279 276 257 210 199 214 195 215 211 217 214 221 191 184 190 194 187 187 203 201 203 195 184 176 197 184 182 181 196 201 183 200 202 214 226 243 244 236 233 247
280 297 280 278 265 266 225 218 172 225 233 210 194 195 221 200 201 205 191 188 189 188 181 200 193 186 178 182 201 202 203 199 196 204 217 228 178 238 235 258 246 223 233
284 287 285 279 279 263 233 263 227 228 220 226 226 211 206 203 202 200 206 207 206 202 187 179 184 207 204 202 200 193 198 210 219 233 245 234 194 219 236 217 229 235 304
285 283 285 271 276 277 282 254 238 223 215 213 211 208 207 205 206 209 210 215 213 216 210 203 200 196 193 194 206 215 223 239 232 224 217 218 226 218 215 267 287 290 333
206 186 265 283 272 274 228 261 226 211 212 192 183 188 189 183 186 185 201 204 189 185 192 197 203 206 212 216 232 239 224 204 207 214 220 219 211 252 268 266 298 325 492

GFSMW_2pvu_pres_177.txt.gz
Presure
338 347 363 374 373 387 238 247 131 230 280 192 179 186 155 156 194 206 171 169 187 168 186 157 164 180 172 176 170 168 172 170 172 92 106 112 174 96 173 169 171 171 171
331 332 337 365 376 388 413 237 240 226 252 198 120 159 107 162 199 175 181 189 170 176 163 169 124 123 164 179 170 174 174 78 169 169 140 134 175 177 173 166 166 170 171
327 325 205 352 375 385 517 210 237 174 207 235 93 188 191 176 187 202 219 207 189 170 178 176 177 169 165 183 169 164 93 116 113 91 121 170 170 172 166 164 170 181 181
324 326 332 340 347 459 490 472 223 228 202 192 107 168 193 151 113 158 219 208 193 191 173 180 188 192 179 178 168 163 138 162 157 168 168 165 172 170 169 170 143 195 189
322 325 326 337 298 83 460 465 215 235 237 183 109 203 197 183 189 192 197 197 197 197 176 195 165 168 171 174 123 172 170 168 173 176 174 175 165 174 170 180 178 173 190
227 328 348 331 356 430 238 454 340 203 246 191 78 203 93 87 168 169 245 149 203 86 172 99 173 174 176 176 164 148 167 169 173 175 182 190 189 159 156 176 187 195 186
218 312 339 335 368 414 421 297 364 217 226 193 198 199 208 193 163 186 186 114 84 154 197 195 187 176 180 193 184 191 188 186 190 193 190 180 197 169 181 174 185 184 197
311 313 183 335 181 406 424 422 352 215 234 210 186 195 209 201 218 173 199 178 200 195 193 197 203 191 185 178 182 198 200 194 191 176 165 169 189 186 197 190 209 189 198
311 326 379 342 167 397 401 392 345 214 224 220 173 179 181 219 180 199 188 173 168 207 204 205 195 194 198 193 189 188 185 174 161 181 177 178 177 192 201 202 199 195 198
342 343 336 350 388 379 376 369 324 213 212 208 122 182 132 186 213 169 206 148 188 156 212 196 191 191 192 193 190 181 182 187 189 191 189 191 204 199 201 213 195 195 195
344 339 331 401 374 366 361 345 311 222 207 194 153 185 218 186 179 170 204 226 178 202 204 195 194 194 191 174 189 191 191 194 188 187 198 195 200 205 212 203 191 193 182
379 338 336 387 363 355 350 320 280 224 203 191 194 84 193 178 181 201 215 190 195 210 207 206 195 189 189 189 193 197 196 195 193 204 203 204 208 212 212 191 182 195 186
407 351 351 369 354 346 332 264 263 232 203 198 191 200 190 200 161 184 223 201 223 223 222 215 202 197 197 193 191 192 203 209 203 218 225 204 213 209 198 186 183 183 180
423 387 398 350 345 340 303 284 252 234 204 146 202 203 195 211 187 187 172 229 231 215 215 211 211 207 179 198 169 194 210 219 206 175 204 211 188 184 171 181 196 188 190
407 392 367 345 292 307 289 254 196 248 210 153 202 203 191 204 182 161 191 197 207 239 217 216 212 174 193 185 187 161 196 177 203 176 174 175 182 186 198 194 180 185 191
394 396 351 343 317 201 266 254 246 264 225 214 201 205 206 194 202 184 183 184 185 216 234 224 215 210 182 185 183 204 179 200 175 171 183 184 189 201 189 184 186 201 199
399 356 355 304 286 271 164 142 183 215 218 209 203 206 220 200 195 190 191 176 185 168 221 216 219 205 195 199 195 201 207 207 195 193 186 203 198 185 185 182 199 193 198
301 294 274 268 265 257 145 212 245 237 198 226 168 215 210 209 194 189 189 186 194 225 171 217 175 216 215 194 189 203 202 191 202 202 200 186 182 195 196 197 187 193 211
256 245 265 262 268 253 245 249 246 217 161 191 222 194 178 218 203 198 192 186 157 180 200 176 187 218 213 222 218 213 187 201 191 177 177 200 200 196 195 189 203 210 206
248 246 237 257 251 255 167 154 161 226 166 237 213 217 191 209 185 201 195 194 151 183 199 202 201 190 228 226 228 226 181 189 202 204 194 181 172 188 198 212 210 204 208
249 249 250 234 246 254 247 168 242 236 218 223 198 200 203 197 239 204 178 198 206 205 171 174 174 218 193 189 192 203 198 187 196 187 190 206 215 180 208 203 205 221 236
261 252 248 245 243 241 245 248 210 188 240 231 209 221 219 205 197 218 205 171 206 208 218 180 178 180 194 208 201 184 201 175 164 190 196 181 204 203 208 217 218 207 237
247 255 240 256 258 251 240 239 234 226 228 235 234 205 245 234 256 204 221 221 217 180 186 189 194 199 203 203 177 172 185 211 210 205 203 201 213 217 233 221 230 220 224
238 259 253 249 252 250 198 187 194 223 187 226 191 206 223 214 215 217 207 190 203 226 207 190 199 196 188 209 201 202 209 201 197 203 213 217 226 240 231 221 214 217 226
270 253 243 245 251 212 228 237 236 197 215 183 188 223 200 207 220 195 190 203 225 202 200 196 185 187 197 200 202 197 196 207 213 217 227 236 227 219 218 217 221 227 229
179 254 299 267 242 213 230 220 256 241 207 257 232 237 227 213 226 224 204 205 194 186 184 199 207 202 196 202 204 207 213 226 229 234 225 215 210 222 215 220 217 231 305

GFSMW_2pvu_pres_180.txt.gz
Presure
250 250 368 359 358 357 358 371 391 251 232 228 248 243 243 96 118 187 179 171 184 201 190 192 170 152 160 161 158 161 166 172 171 169 171 174 174 171 174 170 164 167 171
383 370 360 352 347 348 346 349 370 391 241 241 266 230 93 203 187 172 186 160 187 177 173 178 177 187 172 191 166 147 159 160 125 165 82 167 113 93 160 141 167 168 168
355 352 347 222 341 341 345 345 215 383 363 238 259 244 250 215 198 184 171 193 144 188 206 193 172 180 192 169 177 173 166 134 163 169 163 145 167 163 169 171 170 175 175
333 330 337 331 341 126 331 330 339 375 127 223 257 248 223 204 195 129 177 155 198 178 155 189 193 203 195 149 128 173 177 171 172 170 108 127 177 171 169 174 173 163 172
322 322 324 323 327 331 335 341 346 375 383 272 244 243 253 199 197 130 189 180 196 88 176 162 183 200 175 180 179 99 184 172 176 177 186 173 175 174 163 176 174 174 182
296 299 301 167 313 316 338 362 355 369 395 283 228 235 241 211 196 198 187 179 177 185 179 191 160 173 206 109 193 196 180 177 182 173 171 177 177 173 181 191 186 187 172
307 300 321 318 188 320 325 362 365 395 298 476 218 218 268 222 162 160 107 130 105 207 136 185 124 209 212 204 198 197 162 183 149 173 181 173 191 183 189 175 166 179 184
300 310 357 334 312 324 337 370 368 438 458 428 218 240 228 196 197 112 203 200 175 190 155 192 196 186 209 211 193 195 194 206 199 182 181 197 175 185 184 176 189 194 189
298 308 336 343 327 332 364 79 407 410 401 404 228 241 216 198 186 182 184 198 202 196 181 213 182 195 209 205 199 204 198 194 202 201 191 192 150 194 192 190 192 198 192
327 325 334 369 339 335 343 399 400 391 351 396 208 253 202 203 191 198 184 197 179 191 202 187 162 174 191 156 206 193 190 197 197 192 161 186 185 190 188 192 195 199 201
328 324 361 340 327 318 385 394 368 346 394 374 213 220 211 195 198 102 121 184 202 151 175 188 192 196 173 173 210 201 203 204 196 157 171 191 189 193 192 196 204 196 197
319 364 336 337 318 360 385 360 347 352 353 275 218 228 209 233 230 187 200 172 189 183 208 174 166 201 189 244 219 207 199 210 187 192 194 194 194 198 186 197 192 202 193
320 427 343 325 338 375 373 360 344 359 340 247 210 224 221 271 213 202 226 177 202 216 170 197 175 165 191 230 218 187 205 194 186 165 202 171 152 211 204 172 199 186 176
341 374 336 336 374 354 350 331 330 319 297 229 208 214 223 212 212 169 182 190 187 189 196 202 205 190 192 214 203 202 184 186 190 206 187 153 175 177 189 172 194 188 186
416 365 346 371 333 339 327 327 314 293 261 228 187 212 198 190 180 196 170 194 174 183 176 169 199 221 206 204 173 214 216 221 225 200 205 196 193 211 183 196 199 208 203
382 360 344 328 340 317 307 314 294 281 244 213 204 200 221 210 201 165 192 195 193 191 170 215 165 166 226 195 216 220 227 227 224 213 210 207 200 206 209 203 184 216 214
385 343 336 345 324 309 314 171 269 215 236 218 209 201 200 194 211 211 203 190 197 190 234 194 180 174 190 188 168 177 240 177 229 212 213 216 184 204 215 218 212 204 170
346 350 356 307 327 283 271 269 209 264 246 225 213 194 148 192 198 180 204 199 200 215 199 201 203 187 185 180 170 192 222 201 180 209 212 221 217 215 218 227 179 200 202
356 337 287 274 264 261 261 264 182 259 244 213 213 192 171 205 212 205 211 201 197 181 189 185 176 155 163 172 150 200 160 199 192 182 196 195 198 188 186 201 198 196 183
251 249 248 252 252 256 251 251 251 245 249 156 205 207 179 174 209 184 193 198 206 234 195 184 192 193 203 193 205 172 182 198 190 172 192 192 198 207 238 213 215 187 211
252 251 248 243 252 251 257 252 249 183 241 156 209 166 201 206 216 204 194 203 196 205 214 206 200 201 182 200 178 171 218 225 169 192 190 208 206 218 205 179 205 202 208
235 244 251 246 242 248 246 253 237 263 243 230 227 220 215 201 212 183 201 177 181 193 188 207 209 202 208 203 200 192 202 187 188 181 165 185 188 193 194 209 207 218 222
251 253 243 243 221 249 241 165 164 230 178 248 254 229 222 216 217 177 192 192 212 160 162 212 190 169 234 194 173 176 179 220 200 192 195 189 193 210 212 217 220 231 228
139 205 227 250 251 233 239 249 177 178 242 228 233 230 218 202 230 197 180 216 218 218 198 203 200 188 184 171 193 210 211 192 184 173 196 209 212 217 230 226 233 238 240
237 250 258 238 256 257 243 231 245 203 210 165 237 198 237 213 232 227 220 210 219 207 194 226 168 219 169 210 215 203 181 184 194 203 211 217 233 225 235 227 235 232 218
233 239 246 250 251 240 254 245 234 213 229 184 240 224 207 221 244 245 204 212 189 183 225 216 222 207 220 215 197 187 188 213 213 220 233 232 234 219 228 226 214 225 227

GFSMW_2pvu_pres_183.txt.gz
Presure
271 271 274 274 272 271 273 276 278 279 273 269 267 267 270 259 197 217 192 168 194 197 206 182 172 164 165 175 145 162 197 171 127 174 162 172 161 105 161 162 162 164 163
265 270 272 270 268 267 266 263 261 266 259 257 262 267 269 249 217 193 206 159 182 188 193 186 188 190 177 157 185 174 160 164 188 162 158 164 163 142 164 91 175 182 178
180 205 260 258 253 242 373 368 357 353 354 360 292 248 263 258 194 202 230 189 188 202 200 205 203 188 172 188 185 206 190 186 180 160 164 181 177 170 169 150 172 176 177
252 244 258 345 348 341 338 355 358 351 344 349 357 366 248 248 256 228 126 198 192 190 197 196 188 145 182 181 184 186 197 189 182 162 191 171 173 168 174 172 179 169 176
264 329 325 321 316 317 329 332 337 361 341 344 347 351 366 237 245 230 211 210 201 195 187 104 179 153 137 189 169 182 181 185 176 202 183 199 183 188 170 170 103 173 180
326 323 314 315 312 314 310 317 326 326 332 342 346 357 373 229 243 239 220 210 196 188 200 214 194 97 199 182 192 217 184 127 181 173 193 186 193 189 195 187 192 192 182
303 305 298 302 308 312 319 311 306 316 328 335 344 190 363 249 244 253 221 199 204 183 203 178 176 172 182 171 166 156 95 184 174 146 190 200 202 194 192 201 190 200 201
298 302 311 325 304 333 318 363 333 314 317 349 366 82 358 237 222 180 235 195 203 202 194 187 197 151 190 138 188 176 167 197 177 185 207 203 200 199 193 192 205 198 201
322 322 323 338 329 338 348 348 339 322 287 336 371 367 370 235 229 224 237 208 199 203 199 208 184 192 197 192 158 186 193 175 202 189 211 205 202 196 200 198 193 189 197
326 309 323 313 355 349 366 341 327 326 341 370 377 373 394 220 243 221 81 200 200 197 210 188 176 171 163 168 185 189 136 129 186 172 187 211 205 195 197 184 195 188 187
322 327 309 336 349 339 332 334 330 333 355 366 433 384 478 210 249 213 218 205 191 212 154 196 165 139 191 171 193 161 206 180 207 170 185 172 194 207 211 186 192 194 196
326 359 332 333 332 334 319 325 402 397 373 372 413 440 399 212 245 214 205 201 187 90 181 174 181 200 165 152 197 161 159 198 185 184 184 181 193 219 216 191 204 200 152
421 372 366 301 323 320 391 378 339 336 345 359 397 381 248 208 230 103 206 202 183 197 192 186 180 205 169 162 189 149 184 171 166 203 196 201 199 218 225 216 214 205 159
418 354 351 331 335 367 319 329 323 333 334 351 373 349 222 205 224 201 219 206 195 158 194 192 183 211 231 182 192 174 181 221 201 200 188 186 208 170 187 200 203 213 213
354 337 336 367 327 333 317 315 324 323 356 344 352 336 209 219 206 202 232 196 210 192 214 208 206 189 202 219 197 199 195 180 159 175 204 186 200 213 227 203 170 179 225
358 350 337 323 313 327 309 348 127 292 309 307 129 266 215 205 173 199 228 142 207 196 183 151 190 215 158 176 200 169 170 170 175 207 218 185 186 195 169 179 260 245 242
326 325 328 306 318 302 301 281 237 267 286 286 282 223 211 205 219 207 211 189 195 201 158 191 176 179 201 180 200 171 173 226 202 174 173 177 164 190 172 213 181 217 183
322 344 323 324 289 285 278 280 262 239 259 262 255 228 212 203 217 209 220 205 181 170 182 182 203 171 179 170 179 203 190 193 202 193 171 186 187 192 186 162 181 183 194
281 289 281 275 290 272 263 270 259 265 288 268 252 228 211 206 212 247 178 194 187 188 200 216 216 212 198 205 206 186 172 183 158 187 196 186 186 201 173 175 170 194 210
245 247 246 257 257 268 265 256 263 255 265 273 246 229 210 204 204 213 211 168 175 157 221 221 190 204 174 180 209 166 188 218 156 187 183 171 173 172 166 201 205 219 230
242 261 251 264 256 256 263 259 263 260 260 257 247 221 253 213 215 210 178 205 203 215 213 214 214 215 204 207 210 210 196 194 180 182 210 189 197 187 172 186 199 191 212
246 248 256 253 257 248 247 261 264 253 190 255 245 227 228 209 205 211 196 199 215 217 182 204 186 179 190 195 200 160 183 182 190 190 173 190 176 191 184 202 214 212 194
243 257 250 241 260 248 256 242 249 262 247 248 253 230 216 215 215 177 212 215 188 200 224 219 206 206 216 167 200 202 174 189 177 162 206 203 225 219 232 223 201 203 225
249 263 238 238 248 251 243 264 251 251 248 248 261 241 228 214 211 207 206 203 188 215 209 200 185 184 177 204 206 196 218 216 209 200 213 214 223 214 203 204 229 242 239
248 252 247 244 239 241 259 241 248 244 223 176 173 238 231 221 215 214 197 216 211 206 216 217 217 220 205 169 202 188 199 174 181 235 225 194 189 201 227 242 237 228 227
257 224 256 226 252 232 244 251 263 258 257 254 250 244 239 222 210 226 235 217 223 226 213 193 196 208 220 183 174 211 208 246 205 194 194 237 224 237 233 225 223 218 218